2023/10/15 00:00:00,54.5,13.1
2023/10/15 00:10:00,54.5,13.1
2023/10/15 00:20:00,54.5,13.1
2023/10/15 00:30:00,54.4,12.7
2023/10/15 00:40:00,54.4,12.8
2023/10/15 00:50:00,54.4,12.4
2023/10/15 01:00:00,54.4,12.4
2023/10/15 01:10:00,54.4,12.1
2023/10/15 01:20:00,54.4,11.9
2023/10/15 01:30:00,54.5,11.7
2023/10/15 01:40:00,54.5,11.7
2023/10/15 01:50:00,54.4,11.9
2023/10/15 02:00:00,54.4,12.2
2023/10/15 02:10:00,54.5,12.3
2023/10/15 02:20:00,54.4,12.4
2023/10/15 02:30:00,54.4,12.4
2023/10/15 02:40:00,54.4,12.4
2023/10/15 02:50:00,54.4,12.2
2023/10/15 03:00:00,54.4,12.4
2023/10/15 03:10:00,54.4,12.1
2023/10/15 03:20:00,54.3,12.0
2023/10/15 03:30:00,54.3,12.1
2023/10/15 03:40:00,53.9,12.1
2023/10/15 03:50:00,53.9,11.9
2023/10/15 04:00:00,54.0,11.6
2023/10/15 04:10:00,54.1,11.6
2023/10/15 04:20:00,54.1,11.7
2023/10/15 04:30:00,54.0,11.5
2023/10/15 04:40:00,54.0,11.3
2023/10/15 04:50:00,54.1,11.5
2023/10/15 05:00:00,54.0,12.0
2023/10/15 05:10:00,54.2,11.9
2023/10/15 05:20:00,54.1,12.2
2023/10/15 05:30:00,54.0,12.0
2023/10/15 05:40:00,54.0,11.8
2023/10/15 05:50:00,54.0,11.6
2023/10/15 06:00:00,54.0,11.6
2023/10/15 06:10:00,53.9,11.5
2023/10/15 06:20:00,53.9,11.0
2023/10/15 06:30:00,53.9,10.8
2023/10/15 06:40:00,54.0,11.3
2023/10/15 06:50:00,54.0,10.9
2023/10/15 07:00:00,53.9,10.9
2023/10/15 07:10:00,54.0,10.9
2023/10/15 07:20:00,53.9,10.9
2023/10/15 07:30:00,53.9,10.9
2023/10/15 07:40:00,54.0,11.1
2023/10/15 07:50:00,54.1,11.1
2023/10/15 08:00:00,54.0,11.5
2023/10/15 08:10:00,54.1,11.8
2023/10/15 08:20:00,54.0,12.2
2023/10/15 08:30:00,53.9,12.8
2023/10/15 08:40:00,54.1,12.9
2023/10/15 08:50:00,54.1,13.7
2023/10/15 09:00:00,54.1,13.9
2023/10/15 09:10:00,54.2,12.0
2023/10/15 09:20:00,53.6,12.3
2023/10/15 09:30:00,53.4,12.4
2023/10/15 09:40:00,53.5,12.8
2023/10/15 09:50:00,53.5,12.5
2023/10/15 10:00:00,53.4,13.2
2023/10/15 10:10:00,53.7,13.2
2023/10/15 10:20:00,53.5,13.3
2023/10/15 10:30:00,53.7,13.7
2023/10/15 10:40:00,53.7,14.1
2023/10/15 10:50:00,53.8,15.0
2023/10/15 11:00:00,54.0,14.7
2023/10/15 11:10:00,53.9,17.6
2023/10/15 11:20:00,54.1,18.1
2023/10/15 11:30:00,54.1,17.3
2023/10/15 11:40:00,53.1,17.6
2023/10/15 11:50:00,40.7,17.2
2023/10/15 12:00:00,52.8,16.9
2023/10/15 12:10:00,53.7,16.8
2023/10/15 12:20:00,54.1,17.7
2023/10/15 12:30:00,54.2,16.1
2023/10/15 12:40:00,54.1,15.0
2023/10/15 12:50:00,54.0,16.0
2023/10/15 13:00:00,54.1,16.7
2023/10/15 13:10:00,54.1,16.9
2023/10/15 13:20:00,54.1,16.4
2023/10/15 13:30:00,54.1,17.3
2023/10/15 13:40:00,54.1,17.4
2023/10/15 13:50:00,53.9,18.0
2023/10/15 14:00:00,53.8,17.7
2023/10/15 14:10:00,54.1,16.6
2023/10/15 14:20:00,54.3,17.3
2023/10/15 14:30:00,54.3,18.0
2023/10/15 14:40:00,53.8,18.6
2023/10/15 14:50:00,53.7,19.3
2023/10/15 15:00:00,53.9,18.0
2023/10/15 15:10:00,54.0,18.1
2023/10/15 15:20:00,54.1,17.1
2023/10/15 15:30:00,54.4,16.6
2023/10/15 15:40:00,54.5,16.2
2023/10/15 15:50:00,54.2,16.7
2023/10/15 16:00:00,54.1,16.0
2023/10/15 16:10:00,54.2,15.9
2023/10/15 16:20:00,54.2,15.4
2023/10/15 16:30:00,54.2,14.4
2023/10/15 16:40:00,54.3,13.9
2023/10/15 16:50:00,54.4,13.9
2023/10/15 17:00:00,54.5,13.2
2023/10/15 17:10:00,54.5,13.3
2023/10/15 17:20:00,54.6,13.1
2023/10/15 17:30:00,54.5,12.6
2023/10/15 17:40:00,54.6,12.7
2023/10/15 17:50:00,54.6,12.6
2023/10/15 18:00:00,54.6,12.7
2023/10/15 18:10:00,54.7,12.8
2023/10/15 18:20:00,54.7,12.9
2023/10/15 18:30:00,54.7,12.6
2023/10/15 18:40:00,54.6,12.3
2023/10/15 18:50:00,54.7,12.1
2023/10/15 19:00:00,54.7,11.7
2023/10/15 19:10:00,54.7,11.7
2023/10/15 19:20:00,54.7,11.4
2023/10/15 19:30:00,54.7,11.6
2023/10/15 19:40:00,54.7,11.6
2023/10/15 19:50:00,54.7,11.3
2023/10/15 20:00:00,54.7,11.1
2023/10/15 20:10:00,54.7,10.9
2023/10/15 20:20:00,54.7,10.8
2023/10/15 20:30:00,54.7,10.7
2023/10/15 20:40:00,54.6,10.6
2023/10/15 20:50:00,54.6,10.3
2023/10/15 21:00:00,54.6,10.3
2023/10/15 21:10:00,54.6,10.2
2023/10/15 21:20:00,54.6,10.4
2023/10/15 21:30:00,54.5,10.0
2023/10/15 21:40:00,54.5,10.1
2023/10/15 21:50:00,54.5, 9.9
2023/10/15 22:00:00,54.5,10.1
2023/10/15 22:10:00,54.4, 9.6
2023/10/15 22:20:00,54.4, 9.8
2023/10/15 22:30:00,54.4, 9.6
2023/10/15 22:40:00,54.3, 9.5
2023/10/15 22:50:00,54.3, 9.4
2023/10/15 23:00:00,54.3, 9.3
2023/10/15 23:10:00,54.2, 9.4
2023/10/15 23:20:00,54.2, 9.6
2023/10/15 23:30:00,54.2, 9.6
2023/10/15 23:40:00,54.2, 9.8
2023/10/15 23:50:00,54.2, 9.5
